TimeEDT,TemperatureF,Dew PointF,Humidity,Sea Level PressureIn,VisibilityMPH,Wind Direction,Wind SpeedMPH,Gust SpeedMPH,PrecipitationIn,Events,Conditions,WindDirDegrees,DateUTC
12:56 AM,50.0,44.1,80,29.77,10.0,Calm,Calm,-,N/A,,Clear,0,2012-10-20 04:56:00
1:56 AM,48.0,42.1,80,29.77,10.0,Calm,Calm,-,N/A,,Clear,0,2012-10-20 05:56:00
2:56 AM,48.0,42.1,80,29.78,10.0,Calm,Calm,-,N/A,,Clear,0,2012-10-20 06:56:00
3:56 AM,48.9,41.0,74,29.76,10.0,Calm,Calm,-,N/A,,Clear,0,2012-10-20 07:56:00
4:56 AM,46.9,42.1,83,29.77,10.0,Calm,Calm,-,N/A,,Clear,0,2012-10-20 08:56:00
5:56 AM,46.0,41.0,83,29.78,10.0,Calm,Calm,-,N/A,,Clear,0,2012-10-20 09:56:00
6:56 AM,43.0,39.9,89,29.80,10.0,West,3.5,-,N/A,,Clear,280,2012-10-20 10:56:00
7:56 AM,44.1,41.0,89,29.81,10.0,Calm,Calm,-,N/A,,Clear,0,2012-10-20 11:56:00
8:56 AM,51.1,43.0,74,29.83,10.0,Calm,Calm,-,N/A,,Clear,0,2012-10-20 12:56:00
9:56 AM,57.0,44.1,62,29.84,10.0,WNW,6.9,-,N/A,,Clear,290,2012-10-20 13:56:00
10:56 AM,63.0,44.1,50,29.85,10.0,Variable,5.8,-,N/A,,Clear,0,2012-10-20 14:56:00
12:56 PM,68.0,44.1,42,29.82,10.0,NW,5.8,-,N/A,,Clear,310,2012-10-20 16:56:00
1:56 PM,69.1,43.0,39,29.81,10.0,Calm,Calm,-,N/A,,Clear,0,2012-10-20 17:56:00
2:56 PM,68.0,41.0,37,29.81,10.0,Calm,Calm,-,N/A,,Clear,0,2012-10-20 18:56:00
3:56 PM,69.1,42.1,38,29.81,10.0,Variable,4.6,-,N/A,,Clear,0,2012-10-20 19:56:00
4:56 PM,68.0,43.0,40,29.82,10.0,West,4.6,-,N/A,,Clear,260,2012-10-20 20:56:00
5:56 PM,62.1,45.0,53,29.84,10.0,Calm,Calm,-,N/A,,Clear,0,2012-10-20 21:56:00
6:56 PM,55.0,48.0,77,29.87,10.0,Calm,Calm,-,N/A,,Clear,0,2012-10-20 22:56:00
7:56 PM,53.1,48.0,83,29.89,10.0,WNW,4.6,-,N/A,,Partly Cloudy,290,2012-10-20 23:56:00
8:56 PM,57.0,43.0,59,29.92,10.0,NW,4.6,-,N/A,,Clear,320,2012-10-21 00:56:00
9:56 PM,55.9,41.0,57,29.95,10.0,NW,5.8,-,N/A,,Clear,320,2012-10-21 01:56:00
10:56 PM,55.0,39.0,55,29.96,10.0,NW,3.5,-,N/A,,Clear,310,2012-10-21 02:56:00
11:56 PM,53.1,39.0,59,29.97,10.0,WNW,3.5,-,N/A,,Clear,290,2012-10-21 03:56:00